Location: Lahas
(43.5538°N, 0.8906°E)
Time: 10:59:25
(UTC+00:00)

Cosmos 1602 Rocket - Pass Details

Date: 15 May 2026
Orbit: 597 x 625 km, 82.5° (Epoch: 5 June)

Event Time Altitude Azimuth Distance (km) Brightness Sun altitude
Rises 20:40:29 0° 359° (N) 2,859 7.7 -13.5°
Reaches altitude 10° 20:42:51 10° 9° (N) 1,955 6.6 -13.8°
Maximum altitude 20:46:50 36° 76° (ENE) 974 4.3 -14.3°
Enters shadow 20:48:44 24° 124° (ESE) 1,266 4.6 -14.5°
